Flag for Cameroon Weather past 2 weeks in Bamenda, Cameroon

Now
86 °F

Partly sunny.


Feels Like: 95 °F
Forecast: 58 / 76 °F
Wind: 9 mph from West

Location: Douala Obs.

Current Time: Oct 23, 2014 at 1:03:22 PM

Latest Report: Oct 23, 2014 at 12:00 PM


Visibility: N/A

Pressure: 29.92 "Hg

Humidity: 70%

Dew point: 75 °F

Location of BamendaLocation

Historic Weather in Bamenda — Graph

°F

Bamenda temperature yesterday

Maximum temperature yesterday: 82 °F (at 12:00 PM)
Minimum temperature yesterday: 77 °F (at 12:00 AM)
Average temperature yesterday: 79 °F

Past Weeks' High & Low Weather Summary

 TemperatureHumidityPressure
High90 °F (Oct 15, 2:00 PM)100% (Oct 9, 8:00 AM)30.01 "Hg (Oct 9, 8:00 AM)
Low73 °F (Oct 12, 4:00 AM)59% (Oct 13, 1:00 PM)29.77 "Hg (Oct 8, 4:00 PM)
Average79 °F89%29.88 "Hg
* Reported Oct 8 12:00 Noon — Oct 23 12:00 Noon, Bamenda, Weather by CustomWeather, © 2014

Note: Actual official high and low records may vary slightly from our data, if they occured in-between our weather recording intervals... More about our weather records

Advertising

Bamenda weather history for previous 24 hours

 ConditionsComfort  
Time TempWeatherWind HumidityBarometerVisibility
12:00 PM
Oct 23
86 °FPartly sunny.9 mph70%29.92 "HgN/A
11:00 AM82 °FPartly sunny.7 mph79%29.95 "HgN/A
10:00 AM82 °FPartly sunny.5 mph84%29.98 "HgN/A
9:00 AM82 °FPartly sunny.No wind84%29.95 "HgN/A
8:00 AM77 °FThunderstorms. Partly sunny.No wind94%29.95 "HgN/A
7:00 AM77 °FThunderstorms. Partly sunny.No wind94%29.92 "HgN/A
6:00 AM75 °FThunderstorms. Passing clouds.No wind100%29.89 "HgN/A
5:00 AM75 °FThunderstorms. Passing clouds.No wind100%29.89 "HgN/A
4:00 AM75 °FPassing clouds.No wind100%29.89 "HgN/A
3:00 AM75 °FPassing clouds.No wind100%29.89 "HgN/A
2:00 AM77 °FPassing clouds.No wind94%29.89 "HgN/A
1:00 AM77 °FPassing clouds.No wind94%29.89 "HgN/A
12:00 AM77 °FPassing clouds.No wind100%29.92 "HgN/A
11:00 PM
Oct 22
79 °FPassing clouds.No wind89%29.92 "HgN/A
10:00 PM79 °FPassing clouds.No wind89%29.92 "HgN/A
9:00 PM79 °FPassing clouds.No wind89%29.89 "HgN/A
8:00 PM79 °FPassing clouds.No wind89%29.89 "HgN/A
7:00 PM79 °FPartly cloudy.No wind89%29.89 "HgN/A
5:00 PM82 °FPartly sunny.9 mph79%29.83 "HgN/A
4:00 PM82 °FPartly sunny.12 mph84%29.83 "HgN/A
3:00 PM82 °FThunderstorms. Partly sunny.7 mph84%29.83 "HgN/A
2:00 PM82 °FThunderstorms. Broken clouds.No wind84%29.86 "HgN/A
1:00 PM82 °FThunderstorms. Cloudy.No wind84%29.89 "HgN/A
Weather by CustomWeather, © 2014

See weather overviewHow to use our weather pages